Change the Weather History Date:

Sunday, May 19, 2013

  Actual Average Record
Temperature  
Mean Temperature 54 °F -  
Max Temperature 68 °F - - ()
Min Temperature 40 °F - - ()
Degree Days  
Heating Degree Days 11    
Growing Degree Days 4 (Base 50)    
Moisture  
Dew Point 44 °F    
Average Humidity 71    
Maximum Humidity 100    
Minimum Humidity 27    
Precipitation  
Precipitation 0.00 in - - ()
Sea Level Pressure  
Sea Level Pressure 30.01 in    
Wind  
Wind Speed 3 mph ()    
Max Wind Speed 12 mph    
Max Gust Speed -    
Visibility 6.2 miles    
Events      
T = Trace of Precipitation, MM = Missing Value Source: Averaged Metar Reports

Daily Weather History Graph

Daily Weather History Graph

Search for Another Location

Airport or City:

Trip Planner

Search our weather history database for the weather conditions in past years. The results will help you decide how hot, cold, wet, or windy it might be!

Date:

Astronomy

May. 19, 2013 Rise Set
Actual Time 6:22 AM AEST 5:02 PM AEST
Civil Twilight 5:57 AM AEST 5:27 PM AEST
Nautical Twilight 5:29 AM AEST 5:55 PM AEST
Astronomical Twilight 5:00 AM AEST 6:23 PM AEST
Moon 12:41 PM AEST (5/19) No Moon Set
Length of Visible Light 11h 29m
Length of Day
10h 39m
First Quarter, 59% of the Moon is Illuminated
May 19
First Quarter
May 25
Full
Jun 1
Last Quarter
Jun 9
New
Jun 17
First Quarter

Hourly Weather History & Observations

Time (AEST) Temp. Windchill Dew Point Humidity Pressure Visibility Wind Dir Wind Speed Gust Speed Precip Events Conditions
12:00 AM 46 °F - 44 °F 88% 30.00 in - Calm Calm - -  
12:00 AM 46.4 °F - 42.8 °F 87% 29.98 in 6.2 mi Calm Calm - N/A   Unknown
12:30 AM 44.6 °F - 42.8 °F 93% 29.98 in 6.2 mi Calm Calm - N/A   Unknown
1:00 AM 46.4 °F - 44.6 °F 93% 29.98 in 6.2 mi WSW 1.2 mph - N/A   Unknown
1:30 AM 44.6 °F - 42.8 °F 93% 29.98 in 6.2 mi Calm Calm - N/A   Unknown
2:00 AM 44.6 °F - 42.8 °F 93% 29.98 in 6.2 mi South 2.3 mph - N/A   Unknown
2:30 AM 44.6 °F 42.2 °F 42.8 °F 93% 29.98 in 6.2 mi WSW 4.6 mph - N/A   Unknown
3:00 AM 44 °F - 42 °F 91% 29.97 in - WSW 4.6 mph - -  
3:00 AM 42.8 °F 40.1 °F 42.8 °F 100% 29.98 in 6.2 mi WSW 4.6 mph - N/A   Unknown
3:30 AM 44.6 °F 43.1 °F 42.8 °F 93% 29.98 in 6.2 mi WSW 3.5 mph - N/A   Unknown
4:00 AM 42.8 °F 40.1 °F 42.8 °F 100% 29.98 in 6.2 mi WSW 4.6 mph - N/A   Unknown
4:30 AM 44.6 °F - 44.6 °F 100% 29.98 in 6.2 mi South 2.3 mph - N/A   Unknown
5:00 AM 42.8 °F 41.1 °F 41.0 °F 93% 29.98 in 6.2 mi SW 3.5 mph - N/A   Unknown
5:30 AM 44.6 °F 42.2 °F 42.8 °F 93% 30.01 in 6.2 mi WSW 4.6 mph - N/A   Unknown
6:00 AM 42 °F - 40 °F 88% 30.01 in - Calm Calm - -  
6:00 AM 42.8 °F - 39.2 °F 87% 30.01 in 6.2 mi Calm Calm - N/A   Unknown
6:30 AM 41.0 °F 38.0 °F 41.0 °F 100% 30.01 in 6.2 mi SW 4.6 mph - N/A   Unknown
7:00 AM 46.4 °F 43.5 °F 44.6 °F 93% 30.04 in 6.2 mi WSW 5.8 mph - N/A   Unknown
7:30 AM 50.0 °F - 46.4 °F 87% 30.04 in 6.2 mi Calm Calm - N/A   Unknown
8:00 AM 53.6 °F - 48.2 °F 82% 30.04 in 6.2 mi West 3.5 mph - N/A   Unknown
8:30 AM 57.2 °F - 46.4 °F 67% 30.04 in 6.2 mi Calm Calm - N/A   Unknown
9:00 AM 61 °F - 43 °F 40% 30.06 in - WSW 4.6 mph - -  
9:00 AM 60.8 °F - 42.8 °F 52% 30.04 in 6.2 mi WSW 4.6 mph - N/A   Unknown
9:30 AM 62.6 °F - 41.0 °F 45% 30.04 in 6.2 mi SW 9.2 mph - N/A   Unknown
10:00 AM 64.4 °F - 41.0 °F 42% 30.04 in 6.2 mi SW 10.4 mph - N/A   Unknown
10:30 AM 66.2 °F - 44.6 °F 46% 30.04 in 6.2 mi WSW 8.1 mph - N/A   Unknown
11:00 AM 66.2 °F - 42.8 °F 43% 30.04 in 6.2 mi WSW 9.2 mph - N/A   Unknown
11:30 AM 66.2 °F - 41.0 °F 40% 30.01 in 6.2 mi SW 6.9 mph - N/A   Unknown
12:00 PM 67 °F - 41 °F 27% 30.02 in - South 6.9 mph - -  
12:00 PM 66.2 °F - 41.0 °F 40% 30.01 in 6.2 mi South 6.9 mph - N/A   Unknown
12:30 PM 66.2 °F - 39.2 °F 37% 30.01 in 6.2 mi SW 6.9 mph - N/A   Unknown
1:00 PM 68.0 °F - 41.0 °F 37% 29.98 in 6.2 mi North 11.5 mph - N/A   Unknown
1:30 PM 66.2 °F - 41.0 °F 40% 29.98 in 6.2 mi NNE 9.2 mph - N/A   Unknown
2:00 PM 66.2 °F - 41.0 °F 40% 29.98 in 6.2 mi NNE 8.1 mph - N/A   Unknown
2:30 PM 66.2 °F - 42.8 °F 43% 29.98 in 6.2 mi North 8.1 mph - N/A   Unknown
3:00 PM 67 °F - 42 °F 28% 29.98 in - NNE 6.9 mph - -  
3:00 PM 66.2 °F - 41.0 °F 40% 29.98 in 6.2 mi NNE 6.9 mph - N/A   Unknown
3:30 PM 66.2 °F - 41.0 °F 40% 29.98 in 6.2 mi ENE 5.8 mph - N/A   Unknown
4:00 PM 66.2 °F - 41.0 °F 40% 29.98 in 6.2 mi North 4.6 mph - N/A   Unknown
4:30 PM 64.4 °F - 42.8 °F 45% 29.98 in 6.2 mi North 4.6 mph - N/A   Unknown
5:00 PM 59.0 °F - 44.6 °F 59% 29.98 in 6.2 mi North 3.5 mph - N/A   Unknown
5:30 PM 55.4 °F - 46.4 °F 72% 29.98 in 6.2 mi WSW 5.8 mph - N/A   Unknown
6:00 PM 55 °F - 49 °F 75% 30.01 in - WSW 4.6 mph - -  
6:00 PM 55.4 °F - 50.0 °F 82% 30.01 in 6.2 mi WSW 4.6 mph - N/A   Unknown
6:30 PM 53.6 °F - 48.2 °F 82% 30.01 in 6.2 mi WSW 5.8 mph - N/A   Unknown
7:00 PM 51.8 °F - 48.2 °F 88% 30.01 in 6.2 mi WSW 5.8 mph - N/A   Unknown
7:30 PM 51.8 °F - 48.2 °F 88% 30.04 in 6.2 mi WSW 4.6 mph - N/A   Unknown
8:00 PM 51.8 °F - 46.4 °F 82% 30.04 in 6.2 mi Calm Calm - N/A   Unknown
8:30 PM 51.8 °F - 46.4 °F 82% 30.04 in 6.2 mi SW 3.5 mph - N/A   Unknown
9:00 PM 50 °F - 46 °F 80% 30.05 in - WSW 3.5 mph - -  
9:00 PM 50.0 °F - 46.4 °F 87% 30.04 in 6.2 mi WSW 3.5 mph - N/A   Unknown
9:30 PM 50.0 °F - 46.4 °F 87% 30.04 in 6.2 mi Calm Calm - N/A   Unknown
10:00 PM 50.0 °F - 46.4 °F 87% 30.04 in 6.2 mi SW 3.5 mph - N/A   Unknown
10:30 PM 50.0 °F - 46.4 °F 87% 30.04 in 6.2 mi Calm Calm - N/A   Unknown
11:00 PM 50.0 °F - 46.4 °F 87% 30.04 in 6.2 mi SSW 3.5 mph - N/A   Unknown
11:30 PM 46.4 °F 45.2 °F 44.6 °F 93% 30.04 in 6.2 mi SSW 3.5 mph - N/A   Unknown